Location: Berlin
(52.5167°N, 13.4000°E)
Time: 19:30:04
(UTC+00:00)

Daily predictions for brighter satellites

Satellite Brightness Start Highest point End
(mag) Time Altitude Azimuth Time Altitude Azimuth Time Altitude Azimuth
ASTEX 1 4.4 15:38:25 10° N 15:43:06 50° WNW 15:47:47 10° SSW
BREEZE-M DEB (TANK) 4.4 15:45:10 10° SSE 15:46:50 16° SE 15:49:27 10° E
ATLAS 2AS CENTAUR R/B 3.5 15:41:51 10° NW 15:48:03 34° N 15:54:09 10° ENE
Cosmos 1943 Rocket 3.3 15:43:51 10° SSE 15:48:18 25° ESE 15:52:43 10° NE
Cosmos 2233 Rocket 4.2 15:42:36 10° SSE 15:48:41 53° E 15:54:48 10° NNE
Thor Agena Rocket 3.6 15:44:56 10° SSE 15:50:10 70° ENE 15:55:25 10° NNW
Cosmos 1725 Rocket 4.0 15:44:33 10° S 15:50:48 75° E 15:57:08 10° NNE
ATLAS CENTAUR R/B 2.0 15:47:53 10° WSW 15:51:08 37° NW 15:54:23 10° NNE
Cosmos 2227 Rocket 4.3 15:48:10 10° NW 15:51:12 14° NNW 15:54:14 10° NNE
JB-3 4.3 15:49:40 10° NNE 15:53:33 85° W 15:57:19 10° SSW
Cosmos 1782 Rocket 3.8 15:49:58 10° S 15:54:16 51° E 15:58:34 10° NNE
Cosmos 2082 Rocket 2.6 15:49:04 10° NNW 15:54:25 42° NE 15:59:43 10° ESE
Cosmos 2061 Rocket 4.2 15:49:57 10° SSE 15:56:00 53° E 16:02:03 10° NNE
Cosmos 1300 Rocket 3.6 15:52:29 10° S 15:56:48 59° E 16:01:06 10° NNE
Cosmos 2058 4.0 15:53:46 10° NNE 15:56:56 22° ENE 16:00:05 10° ESE
Cosmos 2173 Rocket 4.4 15:51:47 10° SSW 15:57:56 69° WNW 16:04:04 10° N
Cosmos 921 Rocket 3.4 15:55:36 10° SSW 15:59:57 69° WNW 16:04:25 10° NNE
Cosmos 2278 Rocket 3.1 15:56:34 10° SSE 16:01:21 29° ESE 16:06:09 10° NE
Cosmos 468 Rocket 4.3 16:00:44 10° NNW 16:05:44 44° NE 16:10:40 10° SE
Cosmos 1441 Rocket 4.3 16:03:02 10° NNW 16:06:14 42° W 16:09:26 10° S
MOS 1 Rocket 3.8 16:04:10 10° SE 16:08:05 33° ENE 16:12:11 10° N
Cosmos 1908 Rocket 4.0 16:04:00 10° SSW 16:08:25 66° WNW 16:12:51 10° N
Cosmos 1975 Rocket 3.0 16:05:08 10° N 16:09:30 72° ENE 16:13:52 10° SSE
USA 215 3.6 16:04:08 10° SE 16:10:39 73° SSW 16:17:14 10° WNW
SAR-Lupe-1 4.2 16:07:36 10° SSE 16:11:05 52° ENE 16:14:36 10° N
SL-08 R/B 4.4 16:05:16 10° S 16:11:21 84° E 16:17:28 10° NNE
Cosmos 1602 4.2 16:09:04 10° NNE 16:11:38 24° ENE 16:14:12 10° SE
ARIANE 5 R/B 2.4 16:06:53 10° SSE 16:11:48 64° ENE 16:16:47 10° N
ATLAS 5 CENTAUR R/B 3.4 16:08:39 10° WNW 16:12:41 38° SW 16:17:34 10° SSE
AQUARIUS 4.4 16:08:38 10° SE 16:12:51 46° ENE 16:17:05 10° N
CZ-2D R/B 4.4 16:13:26 10° ESE 16:16:59 28° ENE 16:20:36 10° N
Cosmos 2263 Rocket 4.3 16:14:18 10° NW 16:17:23 15° NNW 16:20:28 10° NNE
Cosmos 2344 3.9 16:10:46 10° NW 16:18:02 52° NNE 16:27:11 10° ESE
Cosmos 1844 Rocket 4.2 16:13:42 10° W 16:18:32 29° NW 16:23:25 10° NNE
Cosmos 1802 Rocket 4.5 16:12:50 10° SSW 16:19:14 69° WNW 16:25:39 10° N
Cosmos 1862 4.1 16:17:34 10° NNE 16:20:38 25° ENE 16:23:41 10° SE
Iridium 4 Rocket 4.2 16:15:54 10° SSW 16:20:42 51° W 16:25:09 10° N
SAR-Lupe-4 3.4 16:17:17 10° SSE 16:20:51 77° ENE 16:24:27 10° NNW
ARIANE 6 FM1 Upper Stage 4.1 16:17:37 10° WNW 16:20:56 24° NNW 16:23:54 12° NE
Geosat FO 4.4 16:25:24 10° SE 16:28:09 42° NE 16:30:55 10° NNW
USA 281 4.2 16:24:36 14° E 16:28:54 26° NE 16:34:07 10° NNW
ISS -2.7 16:26:01 10° SW 16:29:04 33° SSE 16:30:57 18° E
Cosmos 1833 Rocket 4.4 16:24:20 10° NW 16:29:30 37° WSW 16:34:37 10° S
COSMOS 2406 3.6 16:24:27 10° NNW 16:29:54 43° NE 16:35:19 10° ESE
CZ-2D R/B 2.6 16:26:59 10° SSE 16:30:07 81° ENE 16:33:17 10° NNW
Okean 1 Rocket 4.4 16:28:03 10° SE 16:31:02 18° E 16:31:18 18° E
Cosmos 407 Rocket 3.6 16:26:47 10° S 16:31:50 56° ESE 16:36:51 10° NNE
Cosmos 1812 2.7 16:30:56 10° SSE 16:33:33 31° E 16:34:33 24° NE
IRS-P3 4.1 16:29:58 10° SSE 16:35:17 73° ENE 16:40:37 10° NNW
TIMED 4.4 16:31:44 10° SSW 16:35:59 90° SSW 16:40:18 10° NNE
SL-19 R/B 4.5 16:32:35 10° SE 16:37:23 39° ENE 16:42:15 10° N
Cosmos 2084 Rocket 3.9 16:36:56 10° WSW 16:41:03 55° NW 16:44:07 17° NE
SMAP 3.6 16:37:55 10° S 16:42:32 62° WSW 16:47:11 10° NNW
Cosmos 540 Rocket 3.7 16:39:02 10° NNW 16:44:10 72° WSW 16:49:15 10° SSE
Cosmos 44 Rocket 3.6 16:40:14 10° SSW 16:44:48 46° ESE 16:47:37 22° ENE
SJ 16-02 2.2 16:43:15 10° SSE 16:46:55 28° ESE 16:47:54 25° ENE
SPOT 1/Viking Rocket 3.6 16:42:07 10° SE 16:47:10 57° ENE 16:52:17 10° N
Cosmos 1869 2.8 16:45:03 10° S 16:48:34 84° E 16:52:06 10° NNE
YAOGAN 1 2.9 16:45:02 10° SE 16:49:01 40° ENE 16:53:01 10° N
Cosmos 2297 Rocket 4.2 16:46:59 10° NNW 16:49:14 12° N 16:51:22 10° NNE
SL-16 R/B 3.3 16:45:18 10° N 16:51:23 54° WNW 16:57:26 10° SW
Cosmos 1763 Rocket 4.3 16:47:28 10° NNW 16:52:33 54° WSW 16:57:32 10° S
Meteor 2-3 Rocket 4.1 16:48:01 10° N 16:53:22 39° ENE 16:58:37 10° SE
Landsat 7 4.2 16:50:04 10° S 16:54:42 65° WSW 16:59:21 10° NNW
Nadezhda 4 Rocket 4.0 16:51:29 10° N 16:57:46 64° ENE 17:03:55 10° SSE
Spot 4 Rocket 4.0 16:53:07 10° SSE 16:58:08 60° ENE 17:03:10 10° N
RESURS DK-1 3.8 16:54:41 10° NW 16:58:26 38° WSW 17:02:07 10° S
Cosmos 1140 Rocket 4.2 16:55:56 10° SW 17:01:00 53° WNW 17:06:03 10° NNE
Aureole 3 Rocket 2.1 16:58:30 10° S 17:01:31 76° E 17:03:44 19° NNE
CZ-4C R/B 3.4 16:58:23 10° WNW 17:02:59 33° NNW 17:06:52 18° NE
Resurs 1-3 3.6 16:59:09 10° SE 17:03:19 51° ENE 17:07:30 10° N
UNK 4.4 17:00:03 10° N 17:04:35 56° WNW 17:09:05 10° SW
CZ-4 R/B 4.2 17:02:31 10° SSE 17:06:30 88° ENE 17:10:30 10° NNW
Cosmos 304 Rocket 4.2 17:05:31 10° S 17:09:51 37° ESE 17:10:27 36° E
Cosmos 1400 Rocket 2.8 17:07:21 10° S 17:11:01 47° E 17:11:08 47° E
Cosmos 1536 Rocket 3.4 17:06:57 10° N 17:11:24 83° E 17:15:48 10° SSE
Cosmos 371 Rocket 3.7 17:07:05 10° S 17:11:31 38° ESE 17:12:04 36° E
Helios 1A Rocket 4.2 17:16:48 20° SSE 17:16:48 20° SSE 17:18:03 10° S
Cosmos 1428 Rocket 4.4 17:10:18 10° N 17:16:35 72° ENE 17:22:52 10° SSE
NOAA 15 4.5 17:12:12 10° SSE 17:17:30 80° ENE 17:22:50 10° NNW
Okean 2 Rocket 3.0 17:14:05 10° S 17:18:22 56° E 17:20:03 34° NE
Cosmos 489 Rocket 4.4 17:12:09 10° NNW 17:18:28 89° WSW 17:24:41 10° SSE
CARTOSAT-1 4.1 17:22:06 37° NE 17:22:06 37° NE 17:25:12 10° N
NOAA 6 3.9 17:21:14 10° SSE 17:26:20 68° ENE 17:31:27 10° NNW
COSMO-SKYMED 1 2.4 17:26:49 57° ESE 17:26:49 57° ESE 17:30:48 10° S
ATLAS CENTAUR R/B 3.3 17:25:10 10° NW 17:27:02 14° NNW 17:27:35 13° N
Geosat 3.9 17:25:22 34° SE 17:27:32 67° NE 17:32:31 10° NNW
SL-12 R/B(2) 4.4 17:20:06 10° SW 17:28:19 90° SSE 17:35:47 21° NE
Resurs 01 Rocket 2.6 17:30:11 32° NNE 17:30:11 32° NNE 17:32:58 10° N
Cosmos 1943 Rocket 2.4 17:25:56 10° SW 17:31:31 70° WNW 17:35:17 21° NNE
Timation 2 Rocket 4.3 17:26:08 10° SW 17:33:01 73° NW 17:38:22 18° NNE
Cosmos 2058 4.0 17:29:29 10° NNW 17:33:16 42° W 17:37:01 10° SSW
Cosmos 841 Rocket 3.5 17:28:08 10° NNW 17:33:26 83° WSW 17:38:41 10° SSE
Cosmos 2251 Rocket 3.5 17:30:05 10° SSW 17:35:23 84° WNW 17:38:36 25° NNE
SJ-7 4.5 17:32:57 10° S 17:36:36 65° WSW 17:40:18 10° NNW
Cosmos 2227 Rocket 4.3 17:35:38 10° NNW 17:37:53 12° N 17:38:42 12° NNE
Cosmos 2082 Rocket 3.2 17:33:14 10° NW 17:38:33 45° WSW 17:43:51 10° S
BREEZE-M DEB (TANK) 3.0 17:35:54 10° WSW 17:38:49 57° SSE 17:39:49 47° ESE
Cosmos 1346 Rocket 3.6 17:36:21 10° NNW 17:38:39 36° N 17:38:39 36° N
ATLAS 2AS CENTAUR R/B 2.6 17:33:20 10° NW 17:40:07 64° NE 17:42:15 44° E
Cosmos 2278 Rocket 2.6 17:39:28 10° SW 17:45:04 61° NW 17:48:33 24° NNE
Cosmos 1464 Rocket 4.2 17:44:53 10° SSW 17:51:09 72° WNW 17:57:24 10° N
Cosmos 1634 Rocket 4.4 17:45:35 10° SSE 17:57:51 - NNE 17:50:02 41° SE
Meteor 2-1 Rocket 4.2 17:46:55 10° S 17:52:48 74° E 17:57:32 17° NNE
Cosmos 2369 Rocket 4.2 17:49:32 10° SSE 17:50:09 13° SSE 17:50:09 13° SSE
PSLV R/B 4.4 17:53:38 10° S 17:57:31 46° W 18:01:26 10° NNW
Cosmos 1190 Rocket 4.4 17:58:01 10° SW 18:03:16 62° WNW 18:05:27 35° N
Cosmos 2263 Rocket 4.4 18:01:48 10° NNW 18:03:54 12° N 18:04:12 12° N
Cosmos 2034 Rocket 4.0 17:58:50 10° SSW 18:05:03 82° W 18:11:24 10° N
ISS -1.6 18:02:15 10° WSW 18:03:52 26° WSW 18:03:52 26° WSW
Cosmos 676 Rocket 3.9 18:00:59 10° SSW 18:06:18 87° WNW 18:06:42 76° N
Okean 1 Rocket 3.5 18:04:01 10° SSW 18:08:22 60° WNW 18:08:25 60° WNW
Cosmos 1656 Rocket 3.8 18:03:28 10° SSW 18:07:59 57° S 18:07:59 57° S
USA 281 3.1 18:11:29 62° ESE 18:12:36 77° ENE 18:19:11 10° NNW
Sich 1 Rocket 4.3 18:09:42 10° SSW 18:14:09 54° WNW 18:14:56 47° NW
COSMOS 2406 4.2 18:08:51 10° NW 18:14:13 44° WSW 18:19:01 13° S
Cosmos 1954 Rocket 4.4 18:10:30 10° SW 18:15:42 60° WNW 18:16:53 47° N
Cosmos 1092 Rocket 4.1 18:09:29 10° NNW 18:15:46 76° W 18:21:55 10° S
Cosmos 1932 4.4 18:10:10 10° SSW 18:16:22 72° SE 18:16:22 72° SE
Cosmos 2026 Rocket 4.3 18:14:43 10° NNW 18:20:43 63° W 18:26:46 10° S
SJ 16-02 2.5 18:20:49 10° SW 18:24:29 39° WNW 18:24:29 39° WNW
Cosmos 44 Rocket 4.2 18:21:39 10° WSW 18:26:14 43° NW 18:26:14 43° NW
Cosmos 2344 4.2 18:25:03 10° NW 18:32:50 65° SW 18:38:35 28° SSE
Cosmos 2297 Rocket 4.1 18:31:00 10° NNW 18:33:09 18° N 18:33:09 18° N
CZ-4C R/B 3.7 18:47:38 10° NW 18:51:49 31° N 18:51:49 31° N
Resurs 01 Rocket 4.2 19:07:36 18° NW 19:07:36 18° NW 19:09:04 10° NW
Cosmos 1943 Rocket 4.2 19:12:03 10° W 19:16:16 21° NNW 19:16:48 21° NNW
Cosmos 2278 Rocket 4.3 19:26:14 10° WNW 19:30:20 20° NNW 19:30:23 20° NNW
ATLAS 2AS CENTAUR R/B 3.7 19:24:32 10° NW 19:29:40 39° W 19:29:40 39° W
